Weather History for West Palm Beach, FL

Change the Weather History Date:

Tuesday, May 28, 2013

  Actual Average Record
Temperature  
Mean Temperature 78 °F 80 °F  
Max Temperature 83 °F 87 °F 94 °F (1928)
Min Temperature 73 °F 73 °F 59 °F (1920)
Degree Days  
Heating Degree Days 0 0  
Month to date heating degree days 0 0  
Since 1 July heating degree days 164 233  
Cooling Degree Days 13 15  
Month to date cooling degree days 317 367  
Year to date cooling degree days 1144 1062  
Growing Degree Days 28 (Base 50)    
Moisture  
Dew Point 71 °F    
Average Humidity 78    
Maximum Humidity 87    
Minimum Humidity 69    
Precipitation  
Precipitation 0.21 in 0.21 in 4.99 in (1976)
Month to date precipitation 13.41 3.84  
Year to date precipitation 22.69 18.04  
Snow  
Snow 0.00 in - - ()
Month to date snowfall 0.0  
Since 1 July snowfall 0.0  
Snow Depth 0.00 in    
Sea Level Pressure  
Sea Level Pressure 30.09 in    
Wind  
Wind Speed 17 mph (ESE)    
Max Wind Speed 28 mph    
Max Gust Speed 35 mph    
Visibility 9 miles    
Events Fog , Rain    
T = Trace of Precipitation, MM = Missing Value Source: NWS Daily Summary

Daily Weather History Graph

Daily Weather History Graph

Search for Another Location

Airport:

Trip Planner

Search our weather history database for the weather conditions in past years. The results will help you decide how hot, cold, wet, or windy it might be!

Date:

Astronomy

May. 28, 2013 Rise Set
Actual Time 6:27 AM EDT 8:07 PM EDT
Civil Twilight 6:02 AM EDT 8:33 PM EDT
Nautical Twilight 5:31 AM EDT 9:04 PM EDT
Astronomical Twilight 4:58 AM EDT 9:37 PM EDT
Moon 11:42 PM EDT (5/28) 10:05 AM EDT (5/28)
Length of Visible Light 14h 31m
Length of Day
13h 39m
Waning Gibbous, 83% of the Moon is Illuminated
May 28
Waning Gibbous
May 31
Last Quarter
Jun 8
New
Jun 16
First Quarter
Jun 23
Full

Hourly Weather History & Observations

Time (EDT) Temp. Heat Index Dew Point Humidity Pressure Visibility Wind Dir Wind Speed Gust Speed Precip Events Conditions
12:53 AM 78.1 °F - 69.1 °F 74% 30.12 in 10.0 mi East 16.1 mph - N/A   Mostly Cloudy
1:53 AM 78.1 °F - 69.1 °F 74% 30.11 in 10.0 mi East 17.3 mph - N/A   Mostly Cloudy
2:53 AM 78.1 °F - 69.1 °F 74% 30.08 in 10.0 mi East 16.1 mph 21.9 mph N/A   Mostly Cloudy
3:53 AM 78.1 °F - 70.0 °F 76% 30.06 in 10.0 mi East 19.6 mph 24.2 mph N/A   Mostly Cloudy
4:53 AM 78.1 °F - 70.0 °F 76% 30.06 in 10.0 mi East 16.1 mph - N/A   Mostly Cloudy
5:53 AM 77.0 °F - 70.0 °F 79% 30.06 in 10.0 mi East 19.6 mph - N/A   Overcast
6:53 AM 77.0 °F - 71.1 °F 82% 30.08 in 10.0 mi East 17.3 mph 24.2 mph N/A   Overcast
7:53 AM 78.1 °F - 71.1 °F 79% 30.09 in 10.0 mi East 18.4 mph - N/A   Overcast
8:53 AM 80.1 °F 83.6 °F 71.1 °F 74% 30.10 in 10.0 mi East 19.6 mph - N/A   Overcast
9:21 AM 80.6 °F 84.6 °F 71.6 °F 74% 30.11 in 10.0 mi East 19.6 mph 26.5 mph N/A   Overcast
9:53 AM 80.1 °F 83.8 °F 72.0 °F 76% 30.11 in 10.0 mi East 20.7 mph - N/A   Mostly Cloudy
10:19 AM 80.6 °F 84.6 °F 71.6 °F 74% 30.10 in 10.0 mi East 21.9 mph 27.6 mph N/A   Overcast
10:53 AM 78.1 °F - 70.0 °F 76% 30.11 in 10.0 mi ESE 20.7 mph - 0.00 in   Overcast
11:43 AM 78.8 °F - 69.8 °F 74% 30.11 in 10.0 mi SE 17.3 mph - N/A   Overcast
11:53 AM 80.1 °F 83.2 °F 70.0 °F 71% 30.11 in 10.0 mi SE 17.3 mph - N/A   Overcast
12:48 PM 80.6 °F 84.6 °F 71.6 °F 74% 30.10 in 10.0 mi ESE 16.1 mph - N/A   Overcast
12:53 PM 80.1 °F 83.8 °F 72.0 °F 76% 30.11 in 10.0 mi ESE 17.3 mph - N/A   Overcast
1:16 PM 80.6 °F 83.9 °F 69.8 °F 70% 30.10 in 10.0 mi ESE 16.1 mph - N/A   Mostly Cloudy
1:53 PM 81.0 °F 84.9 °F 71.1 °F 72% 30.10 in 10.0 mi ESE 17.3 mph - N/A   Overcast
2:23 PM 80.6 °F 85.4 °F 73.4 °F 79% 30.09 in 10.0 mi SE 15.0 mph - N/A   Overcast
2:53 PM 82.0 °F 87.4 °F 73.0 °F 74% 30.09 in 10.0 mi SE 19.6 mph - 0.00 in   Overcast
3:17 PM 82.4 °F 86.3 °F 69.8 °F 66% 30.08 in 10.0 mi ESE 15.0 mph 24.2 mph N/A   Overcast
3:53 PM 82.0 °F 86.3 °F 71.1 °F 69% 30.07 in 10.0 mi ESE 16.1 mph - N/A   Overcast
4:53 PM 81.0 °F 84.9 °F 71.1 °F 72% 30.06 in 10.0 mi East 18.4 mph 23.0 mph 0.00 in   Mostly Cloudy
5:03 PM 78.8 °F - 71.6 °F 78% 30.07 in 2.0 mi SE 23.0 mph 31.1 mph 0.00 in Rain Heavy Rain
5:05 PM 75.2 °F - 71.6 °F 89% 30.07 in 2.0 mi SE 26.5 mph 32.2 mph 0.00 in Rain Heavy Rain
5:08 PM 75.2 °F - 71.6 °F 89% 30.07 in 0.2 mi SE 21.9 mph 32.2 mph 0.00 in Fog , Rain Heavy Rain
5:16 PM 73.4 °F - 71.6 °F 94% 30.07 in 0.2 mi SE 15.0 mph 31.1 mph 0.14 in Fog , Rain Heavy Rain
5:18 PM 73.4 °F - 71.6 °F 94% 30.07 in 2.0 mi SE 15.0 mph 31.1 mph 0.18 in Rain Heavy Rain
5:24 PM 73.4 °F - 71.6 °F 94% 30.07 in 5.0 mi SE 13.8 mph 21.9 mph 0.20 in Rain Light Rain
5:53 PM 75.0 °F - 71.1 °F 87% 30.06 in 10.0 mi ESE 12.7 mph - 0.21 in Rain Light Rain
6:53 PM 75.9 °F - 71.1 °F 85% 30.06 in 10.0 mi ESE 11.5 mph - 0.00 in   Overcast
7:53 PM 75.9 °F - 71.1 °F 85% 30.08 in 10.0 mi East 12.7 mph - N/A   Overcast
8:53 PM 77.0 °F - 70.0 °F 79% 30.08 in 10.0 mi ESE 12.7 mph - N/A   Mostly Cloudy
9:53 PM 77.0 °F - 71.1 °F 82% 30.07 in 10.0 mi ESE 20.7 mph - N/A   Mostly Cloudy
10:53 PM 77.0 °F - 70.0 °F 79% 30.08 in 10.0 mi ESE 13.8 mph - N/A   Mostly Cloudy
11:20 PM 77.0 °F - 69.8 °F 78% 30.09 in 10.0 mi East 17.3 mph - N/A   Mostly Cloudy
11:53 PM 77.0 °F - 70.0 °F 79% 30.09 in 10.0 mi East 15.0 mph - N/A   Mostly Cloudy